Date,TemperatureHighF,TemperatureAvgF,TemperatureLowF,DewpointHighF,DewpointAvgF,DewpointLowF,HumidityHigh,HumidityAvg,HumidityLow,PressureMaxIn,PressureMinIn,WindSpeedMaxMPH,WindSpeedAvgMPH,GustSpeedMaxMPH,PrecipitationSumIn
2013-10-1,74.5,68.9,64.2,69.7,66.1,62.6,96,91,79,29.47,29.38,9,1,12,0.12
2013-10-2,80.1,70.3,67.1,77.2,69.1,63.7,100,96,70,29.47,29.41,8,0,11,0.00
2013-10-3,86.0,73.9,68.2,72.0,64.5,57.9,97,76,43,29.44,29.35,12,1,16,0.04
2013-10-4,85.1,73.6,66.7,70.3,65.8,63.1,92,78,52,29.44,29.38,12,2,16,0.00
2013-10-5,85.6,74.5,69.6,72.0,68.3,65.8,94,82,56,29.41,29.23,13,1,17,0.04
2013-10-6,73.8,61.6,54.5,70.7,60.2,54.0,98,95,89,29.29,29.21,15,2,19,1.65
2013-10-7,66.2,56.2,46.8,48.3,44.0,41.5,89,66,42,29.53,29.32,18,5,22,1.65
2013-10-8,69.6,57.9,47.7,48.4,43.8,38.8,90,63,34,29.59,29.47,19,4,24,1.65
2013-10-9,74.1,57.2,51.4,58.9,49.3,42.7,86,75,57,29.56,29.47,12,1,16,0.00
2013-10-10,76.5,68.1,59.5,64.8,57.8,55.0,85,71,50,29.53,29.41,9,0,12,1.65
2013-10-11,80.6,63.4,56.1,64.4,55.6,52.8,94,78,42,29.44,29.35,12,1,16,0.00
2013-10-12,74.5,65.2,56.7,64.1,58.6,52.7,92,80,63,29.53,29.38,9,1,12,0.00
2013-10-13,75.9,65.6,56.5,62.1,53.3,42.0,94,68,41,29.65,29.50,20,7,26,0.00
2013-10-14,76.3,62.5,53.4,59.3,48.8,40.4,84,62,44,29.65,29.47,9,4,12,0.00
2013-10-15,70.7,66.1,62.2,63.9,61.1,58.6,94,84,69,29.47,29.32,14,2,18,0.08
2013-10-16,65.5,57.6,52.2,64.6,53.2,48.4,97,86,71,29.41,29.32,14,3,21,0.16
2013-10-17,54.0,50.9,46.4,51.4,46.9,42.1,91,86,81,29.38,29.32,13,4,17,0.08
2013-10-18,70.7,56.6,43.5,54.5,44.9,40.8,93,68,37,29.44,29.32,9,1,12,0.08
2013-10-19,57.4,50.0,40.6,50.2,42.0,35.2,91,75,47,29.44,29.26,20,3,25,0.12
2013-10-20,67.5,50.1,39.4,48.6,38.7,34.8,92,68,36,29.47,29.38,12,1,16,0.08
2013-10-21,69.4,54.3,41.0,49.1,42.3,35.8,86,66,38,29.41,29.35,12,2,16,0.08
2013-10-22,63.0,51.6,40.8,47.9,37.4,30.1,84,61,35,29.44,29.23,17,3,22,0.08
2013-10-23,54.3,45.9,41.4,42.9,32.8,27.8,84,61,40,29.50,29.29,20,4,25,0.08
2013-10-24,52.0,44.4,33.6,37.5,30.0,21.5,76,58,39,29.77,29.50,23,4,29,0.08
2013-10-25,52.5,38.4,29.5,30.9,23.5,20.4,80,58,31,29.88,29.68,16,2,21,0.08
2013-10-26,59.4,45.9,30.9,39.1,31.7,23.5,77,59,42,29.68,29.44,12,2,16,0.08
2013-10-27,62.8,52.2,42.3,49.8,41.3,34.6,82,67,48,29.50,29.41,8,2,14,0.08
2013-10-28,71.2,59.0,52.3,56.5,49.4,45.0,91,73,45,29.62,29.44,10,1,13,0.08
2013-10-29,64.6,57.3,48.7,61.3,53.2,44.4,98,86,77,29.65,29.50,11,2,15,0.08
2013-10-30,77.4,68.5,63.1,62.8,59.1,55.1,90,73,55,29.53,29.38,13,2,17,0.08
2013-10-31,68.9,65.2,57.9,65.9,60.2,53.7,95,84,66,29.38,28.88,30,6,36,0.31